EN

Hourly Weather Abram-Tyube

Today, 14 May, Friday

Time Temperature Precipitation Wind Pressure Humidity
00:00 +16°C° 0 mm 3 mps 754 mmHg 72%
01:00 +16°C° 0 mm 3 mps 754 mmHg 73%
02:00 +14°C° 0 mm 3 mps 754 mmHg 74%
03:00 +14°C° 0 mm 3 mps 754 mmHg 74%
04:00 +15°C° 0 mm 2 mps 754 mmHg 74%
05:00 +15°C° 0 mm 2 mps 754 mmHg 74%
06:00 +15°C° 0 mm 2 mps 754 mmHg 74%
07:00 +18°C° 0 mm 2 mps 754 mmHg 67%
08:00 +20°C° 0 mm 2 mps 754 mmHg 60%
09:00 +23°C° 0 mm 2 mps 754 mmHg 52%
10:00 +26°C° 0 mm 3 mps 754 mmHg 47%
11:00 +28°C° 0 mm 4 mps 753 mmHg 43%
12:00 +30°C° 0 mm 5 mps 753 mmHg 38%
13:00 +32°C° 0 mm 6 mps 753 mmHg 34%
14:00 +33°C° 0 mm 7 mps 752 mmHg 31%
15:00 +34°C° 0 mm 8 mps 752 mmHg 27%
16:00 +32°C° 0 mm 8 mps 752 mmHg 31%
17:00 +31°C° 0 mm 8 mps 752 mmHg 34%
18:00 +28°C° 0 mm 7 mps 752 mmHg 37%
19:00 +26°C° 0 mm 7 mps 752 mmHg 39%
20:00 +23°C° 0 mm 6 mps 753 mmHg 41%
21:00 +21°C° 0 mm 5 mps 753 mmHg 43%
22:00 +20°C° 0 mm 5 mps 752 mmHg 45%
23:00 +20°C° 0 mm 4 mps 752 mmHg 47%

Tomorrow, 15 May, Saturday

Time Temperature Precipitation Wind Pressure Humidity
00:00 +19°C° 0 mm 4 mps 752 mmHg 49%
01:00 +19°C° 0 mm 4 mps 752 mmHg 53%
02:00 +18°C° 0 mm 3 mps 752 mmHg 56%
03:00 +18°C° 0 mm 3 mps 752 mmHg 60%
04:00 +18°C° 0 mm 3 mps 752 mmHg 59%
05:00 +19°C° 0 mm 2 mps 753 mmHg 59%
06:00 +19°C° 0 mm 2 mps 753 mmHg 59%
07:00 +21°C° 0 mm 2 mps 753 mmHg 54%
08:00 +24°C° 0 mm 3 mps 753 mmHg 50%
09:00 +26°C° 0 mm 3 mps 753 mmHg 45%
10:00 +28°C° 0 mm 3 mps 753 mmHg 41%
11:00 +30°C° 0 mm 3 mps 753 mmHg 37%
12:00 +31°C° 0 mm 3 mps 753 mmHg 34%
13:00 +33°C° 0 mm 4 mps 752 mmHg 31%
14:00 +34°C° 0 mm 5 mps 752 mmHg 29%
15:00 +34°C° 0 mm 5 mps 752 mmHg 27%
16:00 +33°C° 0 mm 6 mps 752 mmHg 27%
17:00 +30°C° 0 mm 7 mps 752 mmHg 27%
18:00 +29°C° 0 mm 7 mps 752 mmHg 27%
19:00 +27°C° 0 mm 6 mps 753 mmHg 29%
20:00 +23°C° 0 mm 6 mps 753 mmHg 32%
21:00 +21°C° 0 mm 5 mps 753 mmHg 34%
22:00 +20°C° 0 mm 5 mps 752 mmHg 36%
23:00 +19°C° 0 mm 4 mps 752 mmHg 38%

Day after tomorrow, 16 May, Sunday

Time Temperature Precipitation Wind Pressure Humidity
00:00 +18°C° 0 mm 4 mps 752 mmHg 39%
01:00 +18°C° 0 mm 4 mps 752 mmHg 41%
02:00 +18°C° 0 mm 4 mps 752 mmHg 42%
03:00 +17°C° 0 mm 4 mps 751 mmHg 43%
04:00 +17°C° 0 mm 4 mps 751 mmHg 46%
05:00 +18°C° 0 mm 3 mps 751 mmHg 48%
06:00 +18°C° 0 mm 3 mps 751 mmHg 50%
07:00 +20°C° 0 mm 4 mps 751 mmHg 45%
08:00 +23°C° 0 mm 5 mps 751 mmHg 40%
09:00 +26°C° 0 mm 6 mps 751 mmHg 35%
10:00 +29°C° 0 mm 7 mps 751 mmHg 30%
11:00 +32°C° 0 mm 8 mps 750 mmHg 26%
12:00 +34°C° 0 mm 10 mps 750 mmHg 21%
13:00 +34°C° 0 mm 10 mps 749 mmHg 21%
14:00 +34°C° 0 mm 10 mps 749 mmHg 21%
15:00 +34°C° 0 mm 11 mps 749 mmHg 20%
16:00 +32°C° 0 mm 10 mps 749 mmHg 24%
17:00 +31°C° 0 mm 10 mps 748 mmHg 27%
18:00 +28°C° 0 mm 9 mps 748 mmHg 31%
19:00 +26°C° 0 mm 8 mps 748 mmHg 32%
20:00 +24°C° 0 mm 7 mps 749 mmHg 33%
21:00 +22°C° 0 mm 7 mps 749 mmHg 34%
22:00 +22°C° 0 mm 7 mps 748 mmHg 33%
23:00 +22°C° 0 mm 7 mps 748 mmHg 32%

17 May, Monday

Time Temperature Precipitation Wind Pressure Humidity
00:00 +22°C° 0 mm 7 mps 748 mmHg 31%
01:00 +22°C° 0 mm 7 mps 748 mmHg 33%
02:00 +21°C° 0 mm 7 mps 747 mmHg 35%
03:00 +21°C° 0 mm 7 mps 747 mmHg 37%
04:00 +21°C° 0 mm 7 mps 747 mmHg 40%
05:00 +21°C° 0 mm 6 mps 748 mmHg 43%
06:00 +20°C° 0 mm 6 mps 748 mmHg 46%
07:00 +23°C° 0 mm 7 mps 748 mmHg 41%
08:00 +26°C° 0 mm 8 mps 748 mmHg 36%
09:00 +28°C° 0 mm 9 mps 748 mmHg 31%
10:00 +29°C° 0 mm 9 mps 748 mmHg 29%
11:00 +32°C° 0 mm 9 mps 748 mmHg 26%
12:00 +33°C° 0 mm 9 mps 748 mmHg 23%
13:00 +33°C° 0 mm 10 mps 747 mmHg 24%
14:00 +33°C° 0 mm 10 mps 747 mmHg 24%
15:00 +33°C° 0 mm 10 mps 747 mmHg 24%
16:00 +31°C° 0 mm 9 mps 747 mmHg 28%
17:00 +29°C° 0 mm 8 mps 747 mmHg 32%
18:00 +27°C° 0 mm 6 mps 747 mmHg 36%
19:00 +25°C° 0 mm 5 mps 748 mmHg 40%
20:00 +22°C° 0 mm 4 mps 748 mmHg 44%
21:00 +20°C° 0 mm 3 mps 749 mmHg 47%
22:00 +20°C° 0 mm 2 mps 749 mmHg 50%
23:00 +19°C° 0 mm 2 mps 749 mmHg 52%

18 May, Tuesday

Time Temperature Precipitation Wind Pressure Humidity
00:00 +19°C° 0 mm 1 mps 749 mmHg 54%
01:00 +18°C° 0 mm 2 mps 749 mmHg 55%
02:00 +18°C° 0 mm 2 mps 749 mmHg 56%
03:00 +18°C° 0 mm 2 mps 749 mmHg 57%
04:00 +18°C° 0 mm 3 mps 749 mmHg 60%
05:00 +18°C° 0 mm 4 mps 749 mmHg 63%
06:00 +17°C° 0 mm 5 mps 750 mmHg 66%
07:00 +20°C° 0 mm 6 mps 750 mmHg 63%
08:00 +22°C° 0 mm 7 mps 750 mmHg 60%
09:00 +23°C° 0 mm 8 mps 750 mmHg 57%
10:00 +24°C° 0 mm 8 mps 751 mmHg 55%
11:00 +26°C° 0 mm 9 mps 751 mmHg 53%
12:00 +27°C° 0 mm 9 mps 751 mmHg 51%
13:00 +27°C° 0 mm 9 mps 751 mmHg 50%
14:00 +27°C° 0 mm 9 mps 752 mmHg 49%
15:00 +28°C° 0 mm 9 mps 752 mmHg 48%
16:00 +27°C° 0 mm 8 mps 752 mmHg 51%
17:00 +26°C° 0 mm 7 mps 752 mmHg 54%
18:00 +24°C° 0 mm 6 mps 752 mmHg 56%
19:00 +23°C° 0 mm 6 mps 753 mmHg 60%
20:00 +22°C° 0 mm 5 mps 753 mmHg 64%
21:00 +21°C° 0 mm 5 mps 754 mmHg 68%
22:00 +20°C° 0 mm 5 mps 754 mmHg 70%
23:00 +20°C° 0 mm 5 mps 754 mmHg 72%

19 May, Wednesday

Time Temperature Precipitation Wind Pressure Humidity
00:00 +20°C° 0 mm 5 mps 754 mmHg 74%
01:00 +19°C° 0 mm 5 mps 754 mmHg 77%
02:00 +19°C° 0 mm 5 mps 754 mmHg 79%
03:00 +19°C° 0 mm 4 mps 754 mmHg 82%
04:00 +17°C° 0 mm 5 mps 754 mmHg 82%
05:00 +17°C° 0 mm 5 mps 755 mmHg 82%
06:00 +17°C° 0 mm 5 mps 755 mmHg 83%
07:00 +20°C° 0 mm 5 mps 755 mmHg 75%
08:00 +22°C° 0 mm 4 mps 755 mmHg 66%
09:00 +25°C° 0 mm 4 mps 754 mmHg 58%
10:00 +26°C° 0 mm 3 mps 754 mmHg 53%
11:00 +27°C° 0 mm 3 mps 754 mmHg 48%
12:00 +28°C° 0 mm 2 mps 753 mmHg 43%
13:00 +29°C° 0 mm 2 mps 753 mmHg 41%
14:00 +30°C° 0 mm 2 mps 752 mmHg 39%
15:00 +30°C° 0 mm 2 mps 752 mmHg 37%
16:00 +30°C° 0 mm 1 mps 752 mmHg 38%
17:00 +30°C° 0 mm 1 mps 752 mmHg 38%
18:00 +30°C° 0 mm 1 mps 752 mmHg 39%
19:00 +28°C° 0 mm 1 mps 752 mmHg 43%
20:00 +27°C° 0 mm 2 mps 752 mmHg 48%
21:00 +25°C° 0 mm 2 mps 751 mmHg 52%
22:00 +24°C° 0 mm 3 mps 751 mmHg 56%
23:00 +22°C° 0 mm 3 mps 751 mmHg 60%
Show more